Date String (YYYY-MM-DD hh:mm:ss) UTC,Instrument flags,Ambient pressure (hPa),Sample flow (lpm),Bypass flow (lpm),Sample temperature (°C),Ambient temperature (°C),ASC tube jacket temperature (°C),LED temperature (°C),Box temperature (°C),Sample RH (%),Span deviation,Mass concentration (μg/m³),Mass concentration (μg/m³),Mass concentration (μg/m³)
DateTimeUTC,F1_M11,P_M11,Q1_M11,Q2_M11,T1_M11,T2_M11,T3_M11,T4_M11,T5_M11,U1_M11,ZSPAN_M11,X0_M11,X2_M11,X1_M11
2022-07-11 13:00:00,,0833.1,5.00,0.00,29.7,27.2,00.0,38.5,31.4,29.5,0000.0,0027.87,0007.35,0005.18
2022-07-11 13:01:00,,0833.1,5.00,0.00,29.7,27.3,00.0,38.5,31.4,29.6,0000.0,0027.93,0007.38,0005.18
2022-07-11 13:02:00,,0833.1,5.01,0.00,29.6,27.5,00.0,38.5,31.4,29.7,0000.0,0028.43,0007.34,0005.19
2022-07-11 13:03:00,,0833.1,4.99,0.00,29.6,27.6,00.0,38.5,31.4,29.7,0000.0,0027.54,0007.30,0005.19
2022-07-11 13:04:00,,0833.1,5.00,0.00,29.6,27.8,00.0,38.4,31.4,29.9,0000.0,0026.72,0007.20,0005.19
2022-07-11 13:05:00,,0833.1,4.99,0.00,29.6,27.9,00.0,38.5,31.5,30.1,0000.0,0025.48,0007.18,0005.18
2022-07-11 13:06:00,,0833.1,5.00,0.00,29.6,28.1,00.0,38.4,31.5,30.1,0000.0,0024.71,0007.14,0005.16
2022-07-11 13:07:00,,0833.1,5.00,0.00,29.6,28.2,00.0,38.4,31.5,30.1,0000.0,0022.52,0007.11,0005.15
2022-07-11 13:08:00,,0833.2,5.00,0.00,29.7,28.3,00.0,38.4,31.5,30.0,0000.0,0020.65,0007.06,0005.16
2022-07-11 13:09:00,,0833.2,5.01,0.00,29.7,28.4,00.0,38.5,31.6,29.9,0000.0,0020.09,0006.98,0005.14
2022-07-11 13:10:00,,0833.2,5.00,0.00,29.7,28.4,00.0,38.5,31.6,29.8,0000.0,0019.24,0006.96,0005.13
2022-07-11 13:11:00,,0833.3,5.00,0.00,29.7,28.5,00.0,38.5,31.7,29.8,0000.0,0018.19,0006.86,0005.13
2022-07-11 13:12:00,,0833.3,5.00,0.00,29.8,28.6,00.0,38.5,31.7,29.8,0000.0,0017.18,0006.81,0005.12
2022-07-11 13:13:00,,0833.4,5.00,0.00,29.8,28.6,00.0,38.5,31.7,29.8,0000.0,0016.38,0006.78,0005.11
2022-07-11 13:14:00,,0833.4,5.00,0.00,29.8,28.7,00.0,38.5,31.7,29.8,0000.0,0017.23,0006.81,0005.10
2022-07-11 13:15:00,,0833.4,5.00,0.00,29.8,28.8,00.0,38.5,31.8,29.8,0000.0,0018.36,0006.80,0005.11
2022-07-11 13:16:00,,0833.5,5.00,0.00,29.8,28.8,00.0,38.6,31.8,29.8,0000.0,0018.38,0006.77,0005.12
2022-07-11 13:17:00,,0833.5,4.99,0.00,29.9,28.8,00.0,38.6,31.8,29.8,0000.0,0018.80,0006.73,0005.12
2022-07-11 13:18:00,,0833.5,4.99,0.00,29.9,28.9,00.0,38.6,31.9,29.8,0000.0,0019.14,0006.72,0005.12
2022-07-11 13:19:00,,0833.5,5.00,0.00,29.9,28.9,00.0,38.6,31.9,29.8,0000.0,0019.38,0006.73,0005.12
2022-07-11 13:20:00,,0833.6,4.99,0.00,29.9,29.0,00.0,38.6,31.9,29.8,0000.0,0019.95,0006.77,0005.11
2022-07-11 13:21:00,,0833.6,5.00,0.00,30.0,29.0,00.0,38.6,31.9,29.7,0000.0,0020.33,0006.72,0005.12
2022-07-11 13:22:00,,0833.6,5.02,0.00,30.0,29.0,00.0,38.7,32.0,29.6,0000.0,0020.38,0006.70,0005.11
2022-07-11 13:23:00,,0833.7,5.00,0.00,30.0,29.1,00.0,38.7,32.0,29.6,0000.0,0020.30,0006.67,0005.12
2022-07-11 13:24:00,,0833.7,4.99,0.00,30.1,29.1,00.0,38.7,32.0,29.6,0000.0,0020.26,0006.70,0005.13
2022-07-11 13:25:00,,0833.7,5.00,0.00,30.1,29.1,00.0,38.7,32.0,29.5,0000.0,0019.73,0006.68,0005.13
2022-07-11 13:26:00,,0833.8,5.01,0.00,30.1,29.2,00.0,38.8,32.1,29.5,0000.0,0018.26,0006.67,0005.13
2022-07-11 13:27:00,,0833.9,5.00,0.00,30.1,29.2,00.0,38.8,32.1,29.4,0000.0,0017.95,0006.61,0005.12
2022-07-11 13:28:00,,0833.9,4.99,0.00,30.2,29.2,00.0,38.8,32.1,29.4,0000.0,0017.60,0006.63,0005.13
2022-07-11 13:29:00,,0834.0,5.01,0.00,30.2,29.3,00.0,38.8,32.1,29.3,0000.0,0016.78,0006.63,0005.14
2022-07-11 13:30:00,,0834.0,5.01,0.00,30.2,29.0,00.0,38.8,32.1,29.2,0000.0,0016.45,0006.66,0005.15
2022-07-11 13:31:00,,0834.0,4.98,0.00,30.2,28.2,00.0,38.8,32.0,29.4,0000.0,0015.96,0006.64,0005.17
2022-07-11 13:32:00,,0834.1,5.00,0.00,30.1,27.8,00.0,38.8,31.9,29.4,0000.0,0015.55,0006.59,0005.18
2022-07-11 13:33:00,,0834.1,5.00,0.00,30.0,27.8,00.0,38.8,31.7,29.6,-000.1,0014.35,0006.59,0005.19
2022-07-11 13:34:00,,0834.1,5.00,0.00,30.0,27.8,00.0,38.8,31.7,29.8,-000.8,0014.89,0006.59,0005.20
2022-07-11 13:35:00,,0834.1,4.99,0.00,29.9,27.9,00.0,38.7,31.7,30.2,-000.1,0016.12,0006.61,0005.18
2022-07-11 13:36:00,,0834.1,5.02,0.00,29.9,28.1,00.0,38.7,31.7,30.0,0000.0,0016.75,0006.65,0005.18
2022-07-11 13:37:00,,0834.2,4.99,0.00,29.9,28.2,00.0,38.7,31.8,29.9,0000.0,0016.70,0006.63,0005.18
2022-07-11 13:38:00,,0834.3,5.00,0.00,29.9,28.3,00.0,38.7,31.7,30.0,0000.0,0016.76,0006.67,0005.20
2022-07-11 13:39:00,,0834.3,5.00,0.00,29.9,28.4,00.0,38.7,31.7,30.1,0000.0,0016.99,0006.70,0005.20
2022-07-11 13:40:00,,0834.3,5.00,0.00,29.9,28.5,00.0,38.7,31.8,30.1,0000.0,0017.09,0006.70,0005.20
2022-07-11 13:41:00,,0834.3,5.00,0.00,29.9,28.6,00.0,38.7,31.8,30.1,0000.0,0016.77,0006.68,0005.18
2022-07-11 13:42:00,,0834.3,5.01,0.00,30.0,28.7,00.0,38.7,31.9,29.9,0000.0,0016.83,0006.63,0005.17
2022-07-11 13:43:00,,0834.3,5.00,0.00,30.0,28.8,00.0,38.7,31.9,29.6,0000.0,0016.21,0006.64,0005.16
2022-07-11 13:44:00,,0834.4,5.00,0.00,30.0,28.8,00.0,38.7,31.9,29.9,0000.0,0016.27,0006.67,0005.16
2022-07-11 13:45:00,,0834.4,5.00,0.00,30.0,28.9,00.0,38.8,31.9,30.0,0000.0,0016.73,0006.65,0005.16
2022-07-11 13:46:00,,0834.4,5.00,0.00,30.0,29.0,00.0,38.8,32.0,30.1,0000.0,0015.45,0006.58,0005.16
2022-07-11 13:47:00,,0834.4,4.99,0.00,30.1,29.0,00.0,38.8,32.0,30.2,0000.0,0014.95,0006.55,0005.17
2022-07-11 13:48:00,,0834.5,4.99,0.00,30.1,29.0,00.0,38.8,32.0,30.1,0000.0,0015.17,0006.56,0005.17
2022-07-11 13:49:00,,0834.5,5.01,0.00,30.1,29.1,00.0,38.8,32.0,30.1,0000.0,0015.45,0006.55,0005.16
2022-07-11 13:50:00,,0834.6,5.00,0.00,30.1,28.6,00.0,38.8,32.0,30.2,0000.0,0015.37,0006.55,0005.15
2022-07-11 13:51:00,,0834.7,5.00,0.00,30.1,27.9,00.0,38.7,31.9,30.3,0000.0,0015.97,0006.60,0005.16
2022-07-11 13:52:00,,0834.7,5.00,0.00,30.0,27.7,00.0,38.7,31.7,30.5,0000.0,0016.73,0006.66,0005.18
2022-07-11 13:53:00,,0834.7,4.99,0.00,29.9,27.7,00.0,38.7,31.6,30.8,0000.0,0016.61,0006.68,0005.18
2022-07-11 13:54:00,,0834.7,5.00,0.00,29.9,27.8,00.0,38.7,31.6,30.8,0000.0,0017.20,0006.77,0005.19
2022-07-11 13:55:00,,0834.7,5.00,0.00,29.8,27.9,00.0,38.7,31.6,30.8,0000.0,0017.79,0006.79,0005.18
2022-07-11 13:56:00,,0834.7,4.99,0.00,29.8,28.0,00.0,38.7,31.6,30.7,0000.0,0018.11,0006.86,0005.18
2022-07-11 13:57:00,,0834.7,5.01,0.00,29.8,28.1,00.0,38.7,31.7,30.6,-000.0,0018.43,0006.91,0005.18
2022-07-11 13:58:00,,0834.7,5.00,0.00,29.8,28.3,00.0,38.7,31.7,30.6,-000.1,0018.50,0006.92,0005.18
2022-07-11 13:59:00,,0834.7,5.00,0.00,29.9,28.4,00.0,38.6,31.7,30.4,0000.0,0019.11,0006.94,0005.19
